Time,TemperatureF,DewpointF,PressureIn,WindDirection,WindDirectionDegrees,WindSpeedMPH,WindSpeedGustMPH,Humidity,HourlyPrecipIn,Conditions,Clouds,dailyrainin,SoftwareType,DateUTC
2013-02-06 00:00:00,46.2,44.2,29.97,South,172,3.2,3.2,90,0.00,,,0.00,dv,2013-02-06 05:00:00,
2013-02-06 00:05:00,46.1,43.8,29.97,South,171,0.0,0.0,89,0.00,,,0.00,dv,2013-02-06 05:05:00,
2013-02-06 00:10:00,45.8,43.6,29.98,South,171,0.0,0.0,89,0.00,,,0.00,dv,2013-02-06 05:10:00,
2013-02-06 00:15:00,45.6,43.4,29.97,South,171,0.0,0.0,89,0.00,,,0.00,dv,2013-02-06 05:15:00,
2013-02-06 00:20:00,45.3,43.1,29.97,South,171,0.0,0.0,89,0.00,,,0.00,dv,2013-02-06 05:20:00,
2013-02-06 00:25:00,44.9,42.5,29.97,South,171,0.0,0.0,88,0.00,,,0.00,dv,2013-02-06 05:25:00,
2013-02-06 00:30:00,44.5,41.8,29.97,South,171,0.0,0.0,87,0.00,,,0.00,dv,2013-02-06 05:30:00,
2013-02-06 00:35:00,44.2,41.8,29.97,South,172,0.0,0.0,88,0.00,,,0.00,dv,2013-02-06 05:35:00,
2013-02-06 00:40:00,43.9,41.3,29.97,South,171,0.0,0.0,87,0.00,,,0.00,dv,2013-02-06 05:40:00,
2013-02-06 00:45:00,43.7,41.3,29.97,West,267,3.2,3.2,88,0.00,,,0.00,dv,2013-02-06 05:45:00,
2013-02-06 00:50:00,43.6,41.4,29.97,West,268,1.6,1.6,89,0.00,,,0.00,dv,2013-02-06 05:50:00,
2013-02-06 00:55:00,43.8,41.8,29.97,West,267,3.2,3.2,90,0.00,,,0.00,dv,2013-02-06 05:55:00,
2013-02-06 01:00:00,43.8,42.0,29.97,WSW,240,3.2,3.2,91,0.00,,,0.00,dv,2013-02-06 06:00:00,
2013-02-06 01:05:00,43.9,42.1,29.98,WSW,253,3.2,3.2,91,0.00,,,0.00,dv,2013-02-06 06:05:00,
2013-02-06 01:10:00,43.7,41.7,29.98,WSW,253,1.6,1.6,90,0.00,,,0.00,dv,2013-02-06 06:10:00,
2013-02-06 01:15:00,43.3,41.1,29.98,WSW,253,3.2,3.2,89,0.00,,,0.00,dv,2013-02-06 06:15:00,
2013-02-06 01:20:00,43.1,40.9,29.97,West,279,1.6,1.6,89,0.00,,,0.00,dv,2013-02-06 06:20:00,
2013-02-06 01:25:00,43.0,40.8,29.98,West,270,3.2,3.2,89,0.00,,,0.00,dv,2013-02-06 06:25:00,
2013-02-06 01:30:00,42.7,40.5,29.97,West,269,0.0,0.0,89,0.00,,,0.00,dv,2013-02-06 06:30:00,
2013-02-06 01:35:00,42.4,40.2,29.97,West,269,0.0,0.0,89,0.00,,,0.00,dv,2013-02-06 06:35:00,
2013-02-06 01:40:00,42.2,40.0,29.97,West,270,0.0,0.0,89,0.00,,,0.00,dv,2013-02-06 06:40:00,
2013-02-06 01:45:00,42.0,39.8,29.98,West,270,0.0,0.0,89,0.00,,,0.00,dv,2013-02-06 06:45:00,
2013-02-06 01:50:00,41.9,39.7,29.98,West,270,0.0,0.0,89,0.00,,,0.00,dv,2013-02-06 06:50:00,
2013-02-06 01:55:00,41.8,39.6,29.98,West,270,0.0,0.0,89,0.00,,,0.00,dv,2013-02-06 06:55:00,
2013-02-06 02:00:00,41.7,39.5,29.98,West,270,0.0,0.0,89,0.00,,,0.00,dv,2013-02-06 07:00:00,
2013-02-06 02:05:00,41.7,39.7,29.98,West,270,0.0,0.0,90,0.00,,,0.00,dv,2013-02-06 07:05:00,
2013-02-06 02:10:00,41.7,39.7,29.98,West,270,0.0,0.0,90,0.00,,,0.00,dv,2013-02-06 07:10:00,
2013-02-06 02:15:00,41.8,39.8,29.98,West,270,0.0,0.0,90,0.00,,,0.00,dv,2013-02-06 07:15:00,
2013-02-06 02:20:00,41.9,40.1,29.98,West,270,0.0,0.0,91,0.00,,,0.00,dv,2013-02-06 07:20:00,
2013-02-06 02:25:00,42.0,40.2,29.98,West,270,0.0,0.0,91,0.00,,,0.00,dv,2013-02-06 07:25:00,
2013-02-06 02:30:00,42.1,40.3,29.98,West,270,0.0,0.0,91,0.00,,,0.00,dv,2013-02-06 07:30:00,
2013-02-06 02:35:00,42.0,40.2,29.98,West,270,0.0,0.0,91,0.00,,,0.00,dv,2013-02-06 07:35:00,
2013-02-06 02:45:00,41.4,39.2,29.98,West,269,0.0,0.0,89,0.00,,,0.00,dv,2013-02-06 07:45:00,
2013-02-06 02:50:00,41.2,39.0,29.98,West,270,0.0,0.0,89,0.00,,,0.00,dv,2013-02-06 07:50:00,
2013-02-06 02:55:00,40.9,38.7,29.98,West,270,0.0,0.0,89,0.00,,,0.00,dv,2013-02-06 07:55:00,
2013-02-06 03:00:00,40.7,38.5,29.98,West,270,0.0,0.0,89,0.00,,,0.00,dv,2013-02-06 08:00:00,
2013-02-06 03:05:00,40.6,38.4,29.98,West,270,0.0,0.0,89,0.00,,,0.00,dv,2013-02-06 08:05:00,
2013-02-06 03:10:00,40.6,38.4,29.98,West,270,0.0,0.0,89,0.00,,,0.00,dv,2013-02-06 08:10:00,
2013-02-06 03:15:00,40.5,38.5,29.98,West,270,0.0,0.0,90,0.00,,,0.00,dv,2013-02-06 08:15:00,
2013-02-06 03:25:00,40.2,38.0,29.98,West,270,0.0,0.0,89,0.00,,,0.00,dv,2013-02-06 08:25:00,
2013-02-06 03:30:00,40.0,37.8,29.99,West,270,0.0,0.0,89,0.00,,,0.00,dv,2013-02-06 08:30:00,
2013-02-06 03:35:00,39.8,37.6,29.99,West,270,0.0,0.0,89,0.00,,,0.00,dv,2013-02-06 08:35:00,
2013-02-06 03:40:00,39.7,37.5,29.99,West,270,0.0,0.0,89,0.00,,,0.00,dv,2013-02-06 08:40:00,
2013-02-06 03:45:00,39.6,37.4,29.99,West,269,1.6,1.6,89,0.00,,,0.00,dv,2013-02-06 08:45:00,
2013-02-06 03:50:00,39.5,37.6,29.99,SW,230,0.0,0.0,90,0.00,,,0.00,dv,2013-02-06 08:50:00,
2013-02-06 03:55:00,39.7,38.0,29.99,West,266,4.8,4.8,91,0.00,,,0.00,dv,2013-02-06 08:55:00,
2013-02-06 04:00:00,39.8,38.1,29.99,West,265,0.0,0.0,91,0.00,,,0.00,dv,2013-02-06 09:00:00,
2013-02-06 04:05:00,39.1,37.0,29.99,West,265,3.2,3.2,89,0.00,,,0.00,dv,2013-02-06 09:05:00,
2013-02-06 04:10:00,38.4,35.9,30.00,West,265,0.0,0.0,87,0.00,,,0.00,dv,2013-02-06 09:10:00,
2013-02-06 04:15:00,37.9,35.6,30.00,West,265,0.0,0.0,88,0.00,,,0.00,dv,2013-02-06 09:15:00,
2013-02-06 04:25:00,37.4,35.1,30.00,West,265,0.0,0.0,88,0.00,,,0.00,dv,2013-02-06 09:25:00,
2013-02-06 04:30:00,37.1,34.8,30.00,West,265,0.0,0.0,88,0.00,,,0.00,dv,2013-02-06 09:30:00,
2013-02-06 04:35:00,36.9,34.6,30.00,West,265,0.0,0.0,88,0.00,,,0.00,dv,2013-02-06 09:35:00,
2013-02-06 04:40:00,36.9,34.8,30.00,West,265,0.0,0.0,89,0.00,,,0.00,dv,2013-02-06 09:40:00,
2013-02-06 04:45:00,36.9,34.8,30.00,West,265,1.6,1.6,89,0.00,,,0.00,dv,2013-02-06 09:45:00,
2013-02-06 04:50:00,37.0,35.1,30.01,West,265,0.0,0.0,90,0.00,,,0.00,dv,2013-02-06 09:50:00,
2013-02-06 04:55:00,37.1,35.2,30.01,West,265,3.2,3.2,90,0.00,,,0.00,dv,2013-02-06 09:55:00,
2013-02-06 05:00:00,37.1,35.2,30.01,West,265,1.6,1.6,90,0.00,,,0.00,dv,2013-02-06 10:00:00,
2013-02-06 05:05:00,37.1,35.2,30.01,West,264,0.0,0.0,90,0.00,,,0.00,dv,2013-02-06 10:05:00,
2013-02-06 05:10:00,37.0,35.1,30.01,West,264,0.0,0.0,90,0.00,,,0.00,dv,2013-02-06 10:10:00,
2013-02-06 05:20:00,36.5,34.4,30.02,West,264,0.0,0.0,89,0.00,,,0.00,dv,2013-02-06 10:20:00,
2013-02-06 05:25:00,36.3,34.2,30.02,West,265,0.0,0.0,89,0.00,,,0.00,dv,2013-02-06 10:25:00,
2013-02-06 05:30:00,36.0,33.7,30.02,West,265,0.0,0.0,88,0.00,,,0.00,dv,2013-02-06 10:30:00,
2013-02-06 05:35:00,35.7,33.4,30.02,West,265,0.0,0.0,88,0.00,,,0.00,dv,2013-02-06 10:35:00,
2013-02-06 05:40:00,35.5,33.2,30.03,West,265,0.0,0.0,88,0.00,,,0.00,dv,2013-02-06 10:40:00,
2013-02-06 05:45:00,35.3,33.0,30.03,West,264,0.0,0.0,88,0.00,,,0.00,dv,2013-02-06 10:45:00,
2013-02-06 05:50:00,35.3,33.2,30.03,West,265,0.0,0.0,89,0.00,,,0.00,dv,2013-02-06 10:50:00,
2013-02-06 06:00:00,35.1,33.0,30.03,West,265,0.0,0.0,89,0.00,,,0.00,dv,2013-02-06 11:00:00,
2013-02-06 06:05:00,35.0,32.9,30.03,West,265,0.0,0.0,89,0.00,,,0.00,dv,2013-02-06 11:05:00,
2013-02-06 06:10:00,35.0,32.9,30.04,West,264,0.0,0.0,89,0.00,,,0.00,dv,2013-02-06 11:10:00,
2013-02-06 06:15:00,35.0,32.9,30.04,West,264,0.0,0.0,89,0.00,,,0.00,dv,2013-02-06 11:15:00,
2013-02-06 06:20:00,35.0,32.9,30.05,West,265,0.0,0.0,89,0.00,,,0.00,dv,2013-02-06 11:20:00,
2013-02-06 06:25:00,35.0,32.9,30.05,West,264,0.0,0.0,89,0.00,,,0.00,dv,2013-02-06 11:25:00,
2013-02-06 06:30:00,34.9,32.8,30.05,West,265,0.0,0.0,89,0.00,,,0.00,dv,2013-02-06 11:30:00,
2013-02-06 06:40:00,34.9,32.8,30.05,West,264,0.0,0.0,89,0.00,,,0.00,dv,2013-02-06 11:40:00,
2013-02-06 06:45:00,34.8,32.7,30.06,West,264,0.0,0.0,89,0.00,,,0.00,dv,2013-02-06 11:45:00,
2013-02-06 06:50:00,34.7,32.6,30.06,West,264,0.0,0.0,89,0.00,,,0.00,dv,2013-02-06 11:50:00,
2013-02-06 06:55:00,34.7,32.6,30.06,West,265,0.0,0.0,89,0.00,,,0.00,dv,2013-02-06 11:55:00,
2013-02-06 07:00:00,34.7,32.6,30.06,West,265,0.0,0.0,89,0.00,,,0.00,dv,2013-02-06 12:00:00,
2013-02-06 07:05:00,34.7,32.6,30.06,West,265,0.0,0.0,89,0.00,,,0.00,dv,2013-02-06 12:05:00,
2013-02-06 07:10:00,34.6,32.5,30.06,West,265,0.0,0.0,89,0.00,,,0.00,dv,2013-02-06 12:10:00,
2013-02-06 07:15:00,34.3,32.2,30.06,West,265,0.0,0.0,89,0.00,,,0.00,dv,2013-02-06 12:15:00,
2013-02-06 07:20:00,34.1,31.8,30.07,West,264,0.0,0.0,88,0.00,,,0.00,dv,2013-02-06 12:20:00,
2013-02-06 07:25:00,33.9,31.6,30.07,West,264,0.0,0.0,88,0.00,,,0.00,dv,2013-02-06 12:25:00,
2013-02-06 07:30:00,33.7,31.4,30.07,West,265,0.0,0.0,88,0.00,,,0.00,dv,2013-02-06 12:30:00,
2013-02-06 07:35:00,33.6,31.3,30.08,West,264,0.0,0.0,88,0.00,,,0.00,dv,2013-02-06 12:35:00,
2013-02-06 07:40:00,33.5,31.4,30.08,West,264,0.0,0.0,89,0.00,,,0.00,dv,2013-02-06 12:40:00,
2013-02-06 07:45:00,33.5,31.2,30.08,West,264,0.0,0.0,88,0.00,,,0.00,dv,2013-02-06 12:45:00,
2013-02-06 07:55:00,33.5,31.4,30.08,West,265,0.0,0.0,89,0.00,,,0.00,dv,2013-02-06 12:55:00,
2013-02-06 08:00:00,33.6,31.5,30.09,West,265,0.0,0.0,89,0.00,,,0.00,dv,2013-02-06 13:00:00,
2013-02-06 08:05:00,33.7,31.6,30.09,West,265,0.0,0.0,89,0.00,,,0.00,dv,2013-02-06 13:05:00,
2013-02-06 08:10:00,33.7,31.6,30.09,West,265,0.0,0.0,89,0.00,,,0.00,dv,2013-02-06 13:10:00,
2013-02-06 08:15:00,33.8,31.7,30.09,West,264,0.0,0.0,89,0.00,,,0.00,dv,2013-02-06 13:15:00,
2013-02-06 08:20:00,34.0,31.9,30.09,West,264,0.0,0.0,89,0.00,,,0.00,dv,2013-02-06 13:20:00,
2013-02-06 08:25:00,34.1,32.2,30.09,West,264,0.0,0.0,90,0.00,,,0.00,dv,2013-02-06 13:25:00,
2013-02-06 08:30:00,34.3,32.6,30.09,West,264,0.0,0.0,91,0.00,,,0.00,dv,2013-02-06 13:30:00,
2013-02-06 08:35:00,34.5,32.8,30.10,West,265,0.0,0.0,91,0.00,,,0.00,dv,2013-02-06 13:35:00,
2013-02-06 08:40:00,34.7,33.0,30.10,West,264,0.0,0.0,91,0.00,,,0.00,dv,2013-02-06 13:40:00,
2013-02-06 08:45:00,35.0,33.3,30.10,West,265,0.0,0.0,91,0.00,,,0.00,dv,2013-02-06 13:45:00,
2013-02-06 08:50:00,35.2,33.5,30.10,West,265,0.0,0.0,91,0.00,,,0.00,dv,2013-02-06 13:50:00,
2013-02-06 08:55:00,35.7,34.2,30.10,West,265,0.0,0.0,92,0.00,,,0.00,dv,2013-02-06 13:55:00,
2013-02-06 09:00:00,36.2,34.7,30.10,West,265,0.0,0.0,92,0.00,,,0.00,dv,2013-02-06 14:00:00,
2013-02-06 09:05:00,36.7,35.4,30.10,West,265,0.0,0.0,93,0.00,,,0.00,dv,2013-02-06 14:05:00,
2013-02-06 09:10:00,37.2,35.9,30.11,West,264,0.0,0.0,93,0.00,,,0.00,dv,2013-02-06 14:10:00,
2013-02-06 09:20:00,37.9,36.8,30.11,West,265,0.0,0.0,94,0.00,,,0.00,dv,2013-02-06 14:20:00,
2013-02-06 09:25:00,38.3,37.2,30.11,West,265,0.0,0.0,94,0.00,,,0.00,dv,2013-02-06 14:25:00,
2013-02-06 09:30:00,38.8,37.7,30.11,West,264,0.0,0.0,94,0.00,,,0.00,dv,2013-02-06 14:30:00,
2013-02-06 09:35:00,39.4,38.3,30.11,West,265,0.0,0.0,94,0.00,,,0.00,dv,2013-02-06 14:35:00,
2013-02-06 09:40:00,40.1,39.1,30.12,West,259,0.0,0.0,95,0.00,,,0.00,dv,2013-02-06 14:40:00,
2013-02-06 09:45:00,40.8,40.0,30.12,WSW,253,0.0,0.0,96,0.00,,,0.00,dv,2013-02-06 14:45:00,
2013-02-06 09:50:00,41.4,40.6,30.11,WSW,254,0.0,0.0,96,0.00,,,0.00,dv,2013-02-06 14:50:00,
2013-02-06 09:55:00,42.0,41.2,30.12,WSW,253,0.0,0.0,96,0.00,,,0.00,dv,2013-02-06 14:55:00,
2013-02-06 10:00:00,42.6,41.8,30.12,WSW,254,0.0,0.0,96,0.00,,,0.00,dv,2013-02-06 15:00:00,
2013-02-06 10:05:00,43.2,42.4,30.12,WSW,253,0.0,0.0,96,0.00,,,0.00,dv,2013-02-06 15:05:00,
2013-02-06 10:10:00,43.5,42.7,30.12,WSW,253,0.0,0.0,96,0.00,,,0.00,dv,2013-02-06 15:10:00,
2013-02-06 10:15:00,43.5,42.3,30.13,WSW,253,1.6,1.6,94,0.00,,,0.00,dv,2013-02-06 15:15:00,
2013-02-06 10:20:00,44.0,40.7,30.13,ENE,75,6.4,6.4,84,0.00,,,0.00,dv,2013-02-06 15:20:00,
2013-02-06 10:25:00,45.1,40.6,30.13,ENE,75,1.6,1.6,79,0.00,,,0.00,dv,2013-02-06 15:25:00,
2013-02-06 10:30:00,46.3,39.8,30.13,ENE,75,0.0,0.0,71,0.00,,,0.00,dv,2013-02-06 15:30:00,
2013-02-06 10:35:00,47.7,40.3,30.13,ENE,75,3.2,3.2,68,0.00,,,0.00,dv,2013-02-06 15:35:00,
2013-02-06 10:40:00,49.0,40.4,30.13,ENE,75,3.2,3.2,64,0.00,,,0.00,dv,2013-02-06 15:40:00,
2013-02-06 10:45:00,50.1,40.2,30.13,ENE,75,3.2,3.2,60,0.00,,,0.00,dv,2013-02-06 15:45:00,
2013-02-06 10:50:00,50.9,39.3,30.13,ENE,75,3.2,3.2,55,0.00,,,0.00,dv,2013-02-06 15:50:00,
2013-02-06 10:55:00,51.6,40.0,30.13,ENE,75,3.2,3.2,55,0.00,,,0.00,dv,2013-02-06 15:55:00,
2013-02-06 11:00:00,52.1,40.1,30.13,SW,226,4.8,4.8,54,0.00,,,0.00,dv,2013-02-06 16:00:00,
2013-02-06 11:05:00,52.4,38.9,30.13,NE,53,1.6,1.6,50,0.00,,,0.00,dv,2013-02-06 16:05:00,
2013-02-06 11:10:00,52.8,39.6,30.13,WNW,289,3.2,3.2,51,0.00,,,0.00,dv,2013-02-06 16:10:00,
2013-02-06 11:15:00,53.0,39.1,30.13,WNW,289,3.2,3.2,49,0.00,,,0.00,dv,2013-02-06 16:15:00,
2013-02-06 11:20:00,53.2,38.5,30.13,WNW,282,3.2,3.2,47,0.00,,,0.00,dv,2013-02-06 16:20:00,
2013-02-06 11:25:00,53.8,38.2,30.13,East,94,4.8,4.8,45,0.00,,,0.00,dv,2013-02-06 16:25:00,
2013-02-06 11:30:00,54.2,38.2,30.13,East,94,1.6,1.6,44,0.00,,,0.00,dv,2013-02-06 16:30:00,
2013-02-06 11:40:00,55.0,38.5,30.13,NNE,27,3.2,3.2,43,0.00,,,0.00,dv,2013-02-06 16:40:00,
2013-02-06 11:45:00,55.3,38.3,30.12,ENE,65,3.2,3.2,42,0.00,,,0.00,dv,2013-02-06 16:45:00,
2013-02-06 11:50:00,55.8,38.7,30.12,ENE,75,4.8,4.8,42,0.00,,,0.00,dv,2013-02-06 16:50:00,
2013-02-06 11:55:00,56.2,39.5,30.12,SE,138,3.2,3.2,43,0.00,,,0.00,dv,2013-02-06 16:55:00,
2013-02-06 12:00:00,56.6,39.0,30.12,West,275,6.4,6.4,41,0.00,,,0.00,dv,2013-02-06 17:00:00,
2013-02-06 12:05:00,56.7,39.5,30.12,WSW,238,6.4,6.4,42,0.00,,,0.00,dv,2013-02-06 17:05:00,
2013-02-06 12:10:00,56.7,40.0,30.13,West,280,4.8,4.8,43,0.00,,,0.00,dv,2013-02-06 17:10:00,
2013-02-06 12:15:00,56.8,38.7,30.12,West,276,3.2,3.2,40,0.00,,,0.00,dv,2013-02-06 17:15:00,
2013-02-06 12:20:00,57.1,41.2,30.11,SW,221,6.4,6.4,45,0.00,,,0.00,dv,2013-02-06 17:20:00,
2013-02-06 12:25:00,57.4,38.3,30.11,NNW,346,6.4,6.4,38,0.00,,,0.00,dv,2013-02-06 17:25:00,
2013-02-06 12:30:00,57.8,38.6,30.11,South,182,8.1,8.1,38,0.00,,,0.00,dv,2013-02-06 17:30:00,
2013-02-06 12:35:00,58.0,38.3,30.11,West,271,4.8,4.8,37,0.00,,,0.00,dv,2013-02-06 17:35:00,
2013-02-06 12:40:00,58.5,37.7,30.10,WSW,249,8.1,8.1,35,0.00,,,0.00,dv,2013-02-06 17:40:00,
2013-02-06 12:45:00,58.7,38.9,30.10,WNW,288,8.1,8.1,37,0.00,,,0.00,dv,2013-02-06 17:45:00,
2013-02-06 12:50:00,58.9,39.6,30.10,WSW,253,4.8,4.8,38,0.00,,,0.00,dv,2013-02-06 17:50:00,
2013-02-06 12:55:00,58.9,37.5,30.10,East,93,4.8,4.8,34,0.00,,,0.00,dv,2013-02-06 17:55:00,
2013-02-06 13:00:00,59.2,37.8,30.09,South,185,4.8,4.8,34,0.00,,,0.00,dv,2013-02-06 18:00:00,
2013-02-06 13:05:00,59.4,38.5,30.09,WSW,257,6.4,6.4,35,0.00,,,0.00,dv,2013-02-06 18:05:00,
2013-02-06 13:10:00,59.6,38.7,30.09,SW,220,4.8,4.8,35,0.00,,,0.00,dv,2013-02-06 18:10:00,
2013-02-06 13:15:00,59.8,37.8,30.09,West,260,4.8,4.8,33,0.00,,,0.00,dv,2013-02-06 18:15:00,
2013-02-06 13:20:00,60.0,37.9,30.09,NNE,29,9.7,9.7,33,0.00,,,0.00,dv,2013-02-06 18:20:00,
2013-02-06 13:25:00,60.6,36.7,30.09,NNE,29,8.1,8.1,30,0.00,,,0.00,dv,2013-02-06 18:25:00,
2013-02-06 13:30:00,61.0,38.8,30.09,West,272,11.3,11.3,33,0.00,,,0.00,dv,2013-02-06 18:30:00,
2013-02-06 13:35:00,61.2,37.8,30.08,West,268,3.2,3.2,31,0.00,,,0.00,dv,2013-02-06 18:35:00,
2013-02-06 13:45:00,61.3,39.1,30.08,SSW,206,6.4,6.4,33,0.00,,,0.00,dv,2013-02-06 18:45:00,
2013-02-06 13:50:00,61.6,38.7,30.07,WNW,300,4.8,4.8,32,0.00,,,0.00,dv,2013-02-06 18:50:00,
2013-02-06 13:55:00,61.9,37.8,30.07,South,182,8.1,8.1,30,0.00,,,0.00,dv,2013-02-06 18:55:00,
2013-02-06 14:00:00,62.3,37.5,30.07,SSE,151,8.1,8.1,29,0.00,,,0.00,dv,2013-02-06 19:00:00,
2013-02-06 14:05:00,62.5,37.0,30.07,NE,46,8.1,8.1,28,0.00,,,0.00,dv,2013-02-06 19:05:00,
2013-02-06 14:10:00,62.7,38.5,30.07,SSW,213,8.1,8.1,30,0.00,,,0.00,dv,2013-02-06 19:10:00,
2013-02-06 14:15:00,62.7,38.5,30.07,SSW,212,1.6,1.6,30,0.00,,,0.00,dv,2013-02-06 19:15:00,
2013-02-06 14:20:00,62.7,37.2,30.06,SSW,196,1.6,1.6,28,0.00,,,0.00,dv,2013-02-06 19:20:00,
2013-02-06 14:25:00,62.8,37.3,30.07,South,171,3.2,3.2,28,0.00,,,0.00,dv,2013-02-06 19:25:00,
2013-02-06 14:30:00,63.1,38.8,30.07,NE,46,4.8,4.8,30,0.00,,,0.00,dv,2013-02-06 19:30:00,
2013-02-06 14:35:00,63.3,39.6,30.06,WSW,238,12.9,12.9,31,0.00,,,0.00,dv,2013-02-06 19:35:00,
2013-02-06 14:40:00,63.3,37.0,30.06,North,0,11.3,11.3,27,0.00,,,0.00,dv,2013-02-06 19:40:00,
2013-02-06 14:50:00,63.4,40.9,30.06,SW,214,9.7,9.7,33,0.00,,,0.00,dv,2013-02-06 19:50:00,
2013-02-06 14:55:00,63.4,38.4,30.06,ENE,74,4.8,4.8,29,0.00,,,0.00,dv,2013-02-06 19:55:00,
2013-02-06 15:00:00,63.5,39.2,30.05,SSW,199,3.2,3.2,30,0.00,,,0.00,dv,2013-02-06 20:00:00,
2013-02-06 15:05:00,63.6,41.0,30.05,SSW,204,8.1,8.1,33,0.00,,,0.00,dv,2013-02-06 20:05:00,
2013-02-06 15:15:00,63.6,40.5,30.06,WSW,251,12.9,12.9,32,0.00,,,0.00,dv,2013-02-06 20:15:00,
2013-02-06 15:20:00,63.5,40.4,30.06,WSW,244,8.1,8.1,32,0.00,,,0.00,dv,2013-02-06 20:20:00,
2013-02-06 15:25:00,63.5,40.9,30.06,ESE,109,6.4,6.4,33,0.00,,,0.00,dv,2013-02-06 20:25:00,
2013-02-06 15:30:00,63.6,41.0,30.06,South,188,4.8,4.8,33,0.00,,,0.00,dv,2013-02-06 20:30:00,
2013-02-06 15:35:00,63.6,41.0,30.06,WSW,253,8.1,8.1,33,0.00,,,0.00,dv,2013-02-06 20:35:00,
2013-02-06 15:40:00,63.4,40.9,30.06,SW,214,11.3,11.3,33,0.00,,,0.00,dv,2013-02-06 20:40:00,
2013-02-06 15:45:00,63.2,40.7,30.05,WNW,283,11.3,11.3,33,0.00,,,0.00,dv,2013-02-06 20:45:00,
2013-02-06 15:50:00,62.9,40.4,30.05,West,267,9.7,9.7,33,0.00,,,0.00,dv,2013-02-06 20:50:00,
2013-02-06 15:55:00,62.9,38.7,30.06,NNE,27,3.2,3.2,30,0.00,,,0.00,dv,2013-02-06 20:55:00,
2013-02-06 16:00:00,63.1,40.0,30.05,South,190,3.2,3.2,32,0.00,,,0.00,dv,2013-02-06 21:00:00,
2013-02-06 16:05:00,63.1,39.4,30.05,South,172,12.9,12.9,31,0.00,,,0.00,dv,2013-02-06 21:05:00,
2013-02-06 16:10:00,63.2,39.5,30.05,WNW,285,8.1,8.1,31,0.00,,,0.00,dv,2013-02-06 21:10:00,
2013-02-06 16:15:00,63.3,40.2,30.05,WSW,240,6.4,6.4,32,0.00,,,0.00,dv,2013-02-06 21:15:00,
2013-02-06 16:20:00,63.4,40.3,30.04,SSW,193,6.4,6.4,32,0.00,,,0.00,dv,2013-02-06 21:20:00,
2013-02-06 16:30:00,63.1,39.4,30.04,SW,225,9.7,9.7,31,0.00,,,0.00,dv,2013-02-06 21:30:00,
2013-02-06 16:35:00,63.0,39.9,30.04,WSW,237,11.3,11.3,32,0.00,,,0.00,dv,2013-02-06 21:35:00,
2013-02-06 16:40:00,62.9,40.4,30.04,SW,226,11.3,11.3,33,0.00,,,0.00,dv,2013-02-06 21:40:00,
2013-02-06 16:45:00,62.8,40.3,30.04,SSW,194,8.1,8.1,33,0.00,,,0.00,dv,2013-02-06 21:45:00,
2013-02-06 16:50:00,62.6,39.6,30.05,West,264,6.4,6.4,32,0.00,,,0.00,dv,2013-02-06 21:50:00,
2013-02-06 16:55:00,62.4,39.4,30.05,WSW,248,12.9,12.9,32,0.00,,,0.00,dv,2013-02-06 21:55:00,
2013-02-06 17:00:00,62.3,38.8,30.05,North,357,12.9,12.9,31,0.00,,,0.00,dv,2013-02-06 22:00:00,
2013-02-06 17:05:00,62.1,39.7,30.05,West,260,9.7,9.7,33,0.00,,,0.00,dv,2013-02-06 22:05:00,
2013-02-06 17:10:00,61.9,39.6,30.05,SW,222,6.4,6.4,33,0.00,,,0.00,dv,2013-02-06 22:10:00,
2013-02-06 17:15:00,61.6,39.3,30.05,SW,220,11.3,11.3,33,0.00,,,0.00,dv,2013-02-06 22:15:00,
2013-02-06 17:20:00,61.4,39.1,30.06,SW,229,6.4,6.4,33,0.00,,,0.00,dv,2013-02-06 22:20:00,
2013-02-06 17:25:00,61.3,39.1,30.05,SW,228,4.8,4.8,33,0.00,,,0.00,dv,2013-02-06 22:25:00,
2013-02-06 17:30:00,61.1,38.3,30.05,SW,227,1.6,1.6,32,0.00,,,0.00,dv,2013-02-06 22:30:00,
2013-02-06 17:35:00,60.9,38.1,30.05,West,264,8.1,8.1,32,0.00,,,0.00,dv,2013-02-06 22:35:00,
2013-02-06 17:40:00,60.7,38.5,30.05,SSW,203,4.8,4.8,33,0.00,,,0.00,dv,2013-02-06 22:40:00,
2013-02-06 17:45:00,60.5,37.8,30.05,SSW,198,1.6,1.6,32,0.00,,,0.00,dv,2013-02-06 22:45:00,
2013-02-06 17:50:00,60.2,38.1,30.05,WSW,242,3.2,3.2,33,0.00,,,0.00,dv,2013-02-06 22:50:00,
2013-02-06 17:55:00,59.9,37.9,30.06,WSW,256,4.8,4.8,33,0.00,,,0.00,dv,2013-02-06 22:55:00,
2013-02-06 18:00:00,59.6,37.0,30.05,West,268,4.8,4.8,32,0.00,,,0.00,dv,2013-02-06 23:00:00,
2013-02-06 18:05:00,59.3,36.8,30.05,SW,217,4.8,4.8,32,0.00,,,0.00,dv,2013-02-06 23:05:00,
2013-02-06 18:10:00,59.1,36.6,30.05,SW,217,1.6,1.6,32,0.00,,,0.00,dv,2013-02-06 23:10:00,
2013-02-06 18:15:00,58.9,37.0,30.06,WSW,241,3.2,3.2,33,0.00,,,0.00,dv,2013-02-06 23:15:00,
2013-02-06 18:20:00,58.6,36.7,30.06,WSW,241,0.0,0.0,33,0.00,,,0.00,dv,2013-02-06 23:20:00,
2013-02-06 18:25:00,58.3,36.5,30.06,WSW,241,1.6,1.6,33,0.00,,,0.00,dv,2013-02-06 23:25:00,
2013-02-06 18:30:00,58.1,36.3,30.06,WSW,241,0.0,0.0,33,0.00,,,0.00,dv,2013-02-06 23:30:00,
2013-02-06 18:35:00,57.8,36.1,30.05,WSW,241,0.0,0.0,33,0.00,,,0.00,dv,2013-02-06 23:35:00,
2013-02-06 18:40:00,57.6,35.9,30.06,WSW,241,0.0,0.0,33,0.00,,,0.00,dv,2013-02-06 23:40:00,
2013-02-06 18:45:00,57.3,35.6,30.06,WSW,241,0.0,0.0,33,0.00,,,0.00,dv,2013-02-06 23:45:00,
2013-02-06 18:50:00,57.0,35.4,30.06,WSW,241,0.0,0.0,33,0.00,,,0.00,dv,2013-02-06 23:50:00,
2013-02-06 18:55:00,56.7,35.6,30.06,WSW,239,3.2,3.2,34,0.00,,,0.00,dv,2013-02-06 23:55:00,
2013-02-06 19:00:00,56.5,36.0,30.06,WSW,239,1.6,1.6,35,0.00,,,0.00,dv,2013-02-07 00:00:00,
2013-02-06 19:05:00,56.2,35.2,30.06,WSW,239,0.0,0.0,34,0.00,,,0.00,dv,2013-02-07 00:05:00,
2013-02-06 19:10:00,55.9,35.5,30.06,WSW,239,0.0,0.0,35,0.00,,,0.00,dv,2013-02-07 00:10:00,
2013-02-06 19:15:00,55.6,36.2,30.06,WSW,239,0.0,0.0,37,0.00,,,0.00,dv,2013-02-07 00:15:00,
2013-02-06 19:20:00,55.3,35.5,30.06,WSW,239,0.0,0.0,36,0.00,,,0.00,dv,2013-02-07 00:20:00,
2013-02-06 19:25:00,54.9,35.6,30.07,WSW,239,0.0,0.0,37,0.00,,,0.00,dv,2013-02-07 00:25:00,
2013-02-06 19:30:00,54.5,36.2,30.07,WSW,239,0.0,0.0,39,0.00,,,0.00,dv,2013-02-07 00:30:00,
2013-02-06 19:35:00,54.2,36.0,30.06,WSW,239,0.0,0.0,39,0.00,,,0.00,dv,2013-02-07 00:35:00,
2013-02-06 19:40:00,53.8,35.1,30.07,WSW,239,0.0,0.0,38,0.00,,,0.00,dv,2013-02-07 00:40:00,
2013-02-06 19:45:00,53.4,35.3,30.07,WSW,239,0.0,0.0,39,0.00,,,0.00,dv,2013-02-07 00:45:00,
2013-02-06 19:50:00,53.0,35.4,30.07,WSW,238,0.0,0.0,40,0.00,,,0.00,dv,2013-02-07 00:50:00,
2013-02-06 19:55:00,52.6,35.0,30.07,WSW,239,0.0,0.0,40,0.00,,,0.00,dv,2013-02-07 00:55:00,
2013-02-06 20:00:00,52.3,34.7,30.07,WSW,239,0.0,0.0,40,0.00,,,0.00,dv,2013-02-07 01:00:00,
2013-02-06 20:05:00,52.0,35.8,30.07,WSW,239,0.0,0.0,43,0.00,,,0.00,dv,2013-02-07 01:05:00,
2013-02-06 20:10:00,51.7,35.5,30.09,WSW,239,0.0,0.0,43,0.00,,,0.00,dv,2013-02-07 01:10:00,
2013-02-06 20:15:00,51.4,35.2,30.10,WSW,239,0.0,0.0,43,0.00,,,0.00,dv,2013-02-07 01:15:00,
2013-02-06 20:20:00,51.0,34.9,30.09,WSW,239,0.0,0.0,43,0.00,,,0.00,dv,2013-02-07 01:20:00,
2013-02-06 20:30:00,50.5,34.4,30.10,WSW,239,0.0,0.0,43,0.00,,,0.00,dv,2013-02-07 01:30:00,
2013-02-06 20:35:00,50.3,34.7,30.09,WSW,239,0.0,0.0,44,0.00,,,0.00,dv,2013-02-07 01:35:00,
2013-02-06 20:40:00,50.0,34.4,30.09,WSW,238,0.0,0.0,44,0.00,,,0.00,dv,2013-02-07 01:40:00,
2013-02-06 20:45:00,49.9,34.7,30.09,WSW,239,0.0,0.0,45,0.00,,,0.00,dv,2013-02-07 01:45:00,
2013-02-06 20:50:00,49.6,34.5,30.10,WSW,239,0.0,0.0,45,0.00,,,0.00,dv,2013-02-07 01:50:00,
2013-02-06 20:55:00,49.4,34.7,30.09,WSW,239,0.0,0.0,46,0.00,,,0.00,dv,2013-02-07 01:55:00,
2013-02-06 21:00:00,49.2,34.9,30.10,WSW,239,0.0,0.0,47,0.00,,,0.00,dv,2013-02-07 02:00:00,
2013-02-06 21:05:00,48.9,34.6,30.09,WSW,239,0.0,0.0,47,0.00,,,0.00,dv,2013-02-07 02:05:00,
2013-02-06 21:10:00,48.7,34.4,30.10,WSW,239,0.0,0.0,47,0.00,,,0.00,dv,2013-02-07 02:10:00,
2013-02-06 21:15:00,48.5,34.2,30.10,WSW,239,0.0,0.0,47,0.00,,,0.00,dv,2013-02-07 02:15:00,
2013-02-06 21:25:00,48.1,34.6,30.10,WSW,239,0.0,0.0,49,0.00,,,0.00,dv,2013-02-07 02:25:00,
2013-02-06 21:30:00,47.8,34.0,30.09,WSW,239,0.0,0.0,48,0.00,,,0.00,dv,2013-02-07 02:30:00,
2013-02-06 21:35:00,47.6,34.2,30.10,WSW,239,0.0,0.0,49,0.00,,,0.00,dv,2013-02-07 02:35:00,
2013-02-06 21:40:00,47.4,34.0,30.09,WSW,239,0.0,0.0,49,0.00,,,0.00,dv,2013-02-07 02:40:00,
2013-02-06 21:45:00,47.2,33.8,30.09,WSW,238,0.0,0.0,49,0.00,,,0.00,dv,2013-02-07 02:45:00,
2013-02-06 21:50:00,47.0,34.0,30.09,WSW,239,0.0,0.0,50,0.00,,,0.00,dv,2013-02-07 02:50:00,
2013-02-06 21:55:00,46.8,34.2,30.09,WSW,239,0.0,0.0,51,0.00,,,0.00,dv,2013-02-07 02:55:00,
2013-02-06 22:00:00,46.6,34.3,30.10,WSW,239,0.0,0.0,52,0.00,,,0.00,dv,2013-02-07 03:00:00,
2013-02-06 22:05:00,46.3,34.4,30.10,WSW,239,0.0,0.0,53,0.00,,,0.00,dv,2013-02-07 03:05:00,
2013-02-06 22:10:00,46.1,34.2,30.10,WSW,239,0.0,0.0,53,0.00,,,0.00,dv,2013-02-07 03:10:00,
2013-02-06 22:15:00,46.0,34.5,30.10,WSW,239,0.0,0.0,54,0.00,,,0.00,dv,2013-02-07 03:15:00,
2013-02-06 22:20:00,45.8,33.9,30.10,WSW,239,0.0,0.0,53,0.00,,,0.00,dv,2013-02-07 03:20:00,
2013-02-06 22:25:00,45.6,33.8,30.10,WSW,239,0.0,0.0,53,0.00,,,0.00,dv,2013-02-07 03:25:00,
2013-02-06 22:30:00,45.4,33.6,30.10,WSW,239,0.0,0.0,53,0.00,,,0.00,dv,2013-02-07 03:30:00,
2013-02-06 22:35:00,45.1,33.6,30.10,WSW,239,0.0,0.0,54,0.00,,,0.00,dv,2013-02-07 03:35:00,
2013-02-06 22:40:00,44.9,34.1,30.10,WSW,239,0.0,0.0,56,0.00,,,0.00,dv,2013-02-07 03:40:00,
2013-02-06 22:45:00,44.7,33.9,30.10,WSW,239,0.0,0.0,56,0.00,,,0.00,dv,2013-02-07 03:45:00,
2013-02-06 22:50:00,44.5,34.0,30.09,WSW,239,0.0,0.0,57,0.00,,,0.00,dv,2013-02-07 03:50:00,
2013-02-06 22:55:00,44.2,33.8,30.09,WSW,239,0.0,0.0,57,0.00,,,0.00,dv,2013-02-07 03:55:00,
2013-02-06 23:00:00,44.0,33.9,30.09,WSW,239,0.0,0.0,58,0.00,,,0.00,dv,2013-02-07 04:00:00,
2013-02-06 23:05:00,43.9,33.8,30.09,WSW,239,0.0,0.0,58,0.00,,,0.00,dv,2013-02-07 04:05:00,
2013-02-06 23:10:00,43.7,33.9,30.08,WSW,239,0.0,0.0,59,0.00,,,0.00,dv,2013-02-07 04:10:00,
2013-02-06 23:15:00,43.6,33.8,30.08,WSW,239,0.0,0.0,59,0.00,,,0.00,dv,2013-02-07 04:15:00,
2013-02-06 23:20:00,43.5,33.7,30.08,WSW,239,0.0,0.0,59,0.00,,,0.00,dv,2013-02-07 04:20:00,
2013-02-06 23:25:00,43.5,34.0,30.08,WSW,239,0.0,0.0,60,0.00,,,0.00,dv,2013-02-07 04:25:00,
2013-02-06 23:30:00,43.4,33.9,30.08,WSW,239,0.0,0.0,60,0.00,,,0.00,dv,2013-02-07 04:30:00,
2013-02-06 23:35:00,43.4,33.9,30.08,WSW,239,0.0,0.0,60,0.00,,,0.00,dv,2013-02-07 04:35:00,
2013-02-06 23:40:00,43.3,33.8,30.08,WSW,239,0.0,0.0,60,0.00,,,0.00,dv,2013-02-07 04:40:00,
2013-02-06 23:45:00,43.3,34.1,30.08,WSW,239,0.0,0.0,61,0.00,,,0.00,dv,2013-02-07 04:45:00,
2013-02-06 23:50:00,43.3,33.8,30.08,WSW,239,0.0,0.0,60,0.00,,,0.00,dv,2013-02-07 04:50:00,
2013-02-06 23:55:00,43.2,33.8,30.08,WSW,239,0.0,0.0,60,0.00,,,0.00,dv,2013-02-07 04:55:00,